Hovedside
METAR-TAF:

METAR-TAF

Lufthavner :

Honningsvåg lufthavn. Valan

Honningsvåg, Norge

breddegrad: 71-01N, lengdegrad: 025-59E, høyde over havet: 1 m

Gjeldene værobservasjon

Denne rapporten ble laget for 6 timer og 14 minutter siden, klokken 22:20 UTC
Vind 12 kt fra Sør, skiftende mellom Sør-sørøst og Sør-sørvest
Temperatur -1°C
Luftfuktighet 80%
Trykk 1029 hPa
Sikt 10 km eller mer
Spredte skyer i en høyde av 1500 ft

METAR: ENHV 182220Z 18012KT 150V210 9999 SCT015 M01/M04 Q1029

Tid: 05:34 (04:34 UTC)


TAF: fraværende

Værobservasjoner og værvarsel for over 4000 flyplasser (METAR- og TAF-rapporter).

Tilgjengelige stasjoner er representert av de røde og gule prikkene på kartet.

Hold musepekeren over prikken for å se navnet på stasjonen.

Klikk så for å se værobservasjoner og -varsler.

For å forandre kartet kan du klikke på den grønne knappen med svart kryss for å zoome inn, på den grønne knappen med strek for å zoome ut, eller på de grønne pilene for å se tilstøtende kart.


METAR-TAF: